Location: Rankin
(44.5961°N, 87.5034°W)
Time: 14:23:08
(UTC+00:00)

ISS - Visible Passes

Search period start: 25 May 2022 00:00
Search period end: 04 June 2022 00:00
Orbit: 414 x 421 km, 51.6° (Epoch: 25 May)

Date Brightness Start Highest point End Pass type
(mag) Time Alt. Az. Time Alt. Az. Time Alt. Az.
25 May -2.0 02:46:48 10° NW 02:49:49 29° NNE 02:52:48 10° ENE visible
25 May -2.9 04:23:29 10° WNW 04:25:59 46° WNW 04:25:59 46° WNW visible
26 May -1.8 01:58:42 10° NW 02:01:35 25° N 02:04:28 10° ENE visible
26 May -3.6 03:35:24 10° WNW 03:38:46 69° NNE 03:39:31 48° E visible
27 May -3.0 02:47:21 10° NW 02:50:37 47° NNE 02:53:04 16° E visible
27 May -1.8 04:24:19 10° WNW 04:25:58 22° W 04:25:58 22° W visible
28 May -2.4 01:59:16 10° NW 02:02:24 35° NNE 02:05:32 10° E visible
28 May -3.5 03:36:00 10° WNW 03:39:16 48° SW 03:39:31 47° SSW visible
29 May -3.8 02:47:49 10° WNW 02:51:10 80° SSW 02:53:06 23° SE visible
30 May -3.5 01:59:40 10° NW 02:03:00 67° NNE 02:06:20 10° ESE visible
30 May -1.9 03:37:01 10° W 03:39:28 19° SW 03:39:37 19° SW visible
31 May -2.5 02:48:27 10° WNW 02:51:27 31° SW 02:53:15 18° S visible
01 Jun -3.2 02:00:05 10° WNW 02:03:20 51° SW 02:06:36 10° SE visible
02 Jun -1.2 02:50:01 10° WSW 02:51:26 12° SW 02:52:51 10° SSW visible
